This demonstration page uses our WeatherBlox Daily Observations layout. Learn more.

Left ArrowRight Arrow

Hourly Observations for October 30, 2018

Temp ( °F °C ) Dew Point ( °F °C ) Humidity (%) Winds ( mph kmh ) Pressure ( in mb ) Visibility ( mi km ) Precip ( " mm )
12:54 am 00:54 Clear 47 8.3 41 5 80 80 N 10 17 29.77 1008 10 16.0934 0 0
1:54 am 01:54 Partly Cloudy 49 9.4 42 5.6 77 77 N 6 9 29.78 1009 10 16.0934 0 0
2:54 am 02:54 Clear 47 8.3 42 5.6 83 83 NNW 6 9 29.78 1008 10 16.0934 0 0
3:54 am 03:54 Clear 45 7.2 41 5 86 86 N 7 11 29.78 1009 10 16.0934 0 0
4:54 am 04:54 Clear 50 10 42 5.6 74 74 N 13 20 29.78 1009 10 16.0934 0 0
5:54 am 05:54 Clear 50 10 41 5 71 71 N 14 22 29.82 1010 10 16.0934 0 0
6:54 am 06:54 Clear 50 10 40 4.4 68 68 NNW 16 26 29.83 1010 10 16.0934 0 0
7:54 am 07:54 Clear 49 9.4 39 3.9 69 69 N 16 26 29.84 1010 10 16.0934 0 0
8:54 am 08:54 Sunny 50 10 40 4.4 68 68 N 16 26 29.87 1011 10 16.0934 0 0
9:54 am 09:54 Sunny 52 11.1 40 4.4 64 64 N 16 26 29.89 1012 10 16.0934 0 0
10:54 am 10:54 Sunny 54 12.2 40 4.4 59 59 N 20 31 29.89 1012 10 16.0934 0 0
11:54 am 11:54 Sunny 58 14.4 41 5 53 53 N 22 35 29.9 1012 10 16.0934 0 0
12:54 pm 12:54 Sunny 57 13.9 41 5 55 55 N 21 33 29.92 1013 10 16.0934 0 0
1:54 pm 13:54 Sunny 60 15.6 41 5 50 50 N 22 35 29.89 1012 10 16.0934 0 0
2:54 pm 14:54 Sunny 60 15.6 38 3.3 44 44 N 24 39 29.9 1012 10 16.0934 0 0
3:54 pm 15:54 Sunny 59 15 35 1.7 41 41 N 24 39 29.91 1013 10 16.0934 0 0
4:54 pm 16:54 Sunny 58 14.4 35 1.7 42 42 N 22 35 29.92 1013 10 16.0934 0 0
5:54 pm 17:54 Sunny 56 13.3 35 1.7 46 46 N 16 26 29.95 1014 10 16.0934 0 0
6:54 pm 18:54 Clear 53 11.7 37 2.8 55 55 N 10 17 29.97 1015 10 16.0934 0 0
7:54 pm 19:54 Mostly Cloudy 53 11.7 37 2.8 55 55 N 10 17 29.99 1016 10 16.0934 0 0
8:54 pm 20:54 Mostly Cloudy 53 11.7 38 3.3 57 57 N 9 15 30 1016 10 16.0934 0 0
9:54 pm 21:54 Mostly Cloudy 52 11.1 38 3.3 59 59 N 9 15 30.02 1017 10 16.0934 0 0
10:54 pm 22:54 Clear 51 10.6 38 3.3 61 61 NNW 8 13 30.03 1017 10 16.0934 0 0
11:54 pm 23:54 Clear 49 9.4 38 3.3 66 66 N 6 9 30.03 1017 10 16.0934 0 0

Powered by AerisWeather